Theta_e
317 316 321 316 300 299 294 295 302 300 301 305 305 307 305 302 302 300 306 310 311 313 316 318 322 325 326 326 327 330 332 335 337 340 343 345 346 345 345 347 348 349 348 349 349 349 349 349 346
314 316 317 309 295 291 293 298 298 300 300 302 305 303 302 298 301 301 304 307 308 310 313 316 321 322 322 322 323 323 325 327 330 334 336 338 340 345 345 344 348 348 348 348 348 348 348 348 348
313 312 308 300 295 291 293 297 299 298 298 302 302 302 301 298 300 302 307 306 306 307 312 314 318 319 319 319 319 319 320 320 322 324 328 332 334 336 339 344 345 347 348 348 348 347 348 346 347
316 311 306 297 292 294 296 298 297 297 297 299 301 297 299 300 301 305 306 305 305 305 308 312 314 316 316 316 316 316 317 317 318 319 319 322 326 329 334 339 342 345 345 347 347 347 347 347 346
310 307 297 294 293 294 296 295 296 296 296 297 298 296 296 300 305 305 305 305 304 304 304 307 311 312 312 313 313 314 314 315 315 315 316 317 318 321 327 332 337 341 344 344 346 347 346 346 345
303 301 293 291 292 294 294 294 295 295 295 295 298 297 296 303 303 304 304 304 304 303 304 303 305 306 308 309 310 310 311 311 312 312 312 313 313 315 319 324 328 336 340 343 343 344 344 343 343
299 297 292 292 291 292 294 293 294 294 294 293 299 296 297 300 304 304 304 303 303 302 303 303 303 303 305 304 306 306 307 308 308 308 308 308 309 310 312 315 321 326 331 335 341 342 343 343 342
300 298 291 292 291 292 292 292 292 293 293 294 296 294 295 301 304 304 304 303 302 302 301 301 302 302 302 303 303 303 304 304 305 305 304 304 305 307 309 311 314 320 325 327 333 340 342 342 341
297 294 291 291 290 292 291 291 292 294 293 293 294 294 297 302 303 303 302 302 302 301 301 301 301 301 301 301 301 302 302 302 302 303 303 304 305 305 307 308 309 314 319 321 326 335 339 338 336
296 292 291 291 292 291 291 291 292 292 291 292 293 296 299 301 301 301 300 301 300 300 299 300 300 300 300 299 301 302 301 302 302 303 303 303 303 304 304 306 308 310 316 318 321 331 334 332 340
290 290 289 289 290 291 290 290 292 291 290 294 293 295 298 299 300 300 300 300 300 299 301 299 299 300 300 300 300 301 300 301 302 302 302 302 302 304 305 306 307 309 310 315 320 323 335 339 340
288 289 289 290 292 291 290 292 291 291 293 294 295 297 297 298 298 299 300 300 299 299 298 298 299 299 299 299 299 299 299 299 300 300 301 301 301 302 303 304 305 307 309 312 318 320 323 331 338
289 290 290 291 291 291 291 291 291 291 296 295 295 294 296 297 298 300 301 300 299 297 297 296 298 298 298 298 298 298 298 298 299 299 300 300 299 300 302 303 304 305 306 308 310 318 318 318 330
290 290 290 291 291 291 289 291 290 293 294 295 294 295 296 296 298 299 299 298 297 296 296 296 297 297 297 297 297 297 298 298 298 298 298 298 299 300 301 301 302 303 305 306 308 310 316 315 315
289 287 289 289 290 289 289 287 286 294 292 293 293 295 295 295 296 297 299 298 297 296 295 295 295 296 296 296 296 296 297 296 297 297 297 298 298 299 299 300 300 302 304 305 306 307 309 312 313
286 287 284 286 289 289 288 285 288 291 292 292 293 293 294 295 295 297 298 297 295 295 294 295 295 295 295 295 295 295 296 296 296 296 297 298 298 299 299 299 300 302 303 304 305 305 307 310 312
286 288 282 284 288 287 287 286 289 291 290 291 292 293 293 293 294 296 296 296 295 294 293 294 294 294 294 294 294 294 295 295 295 295 296 296 297 298 298 298 300 302 302 303 304 304 305 306 311
286 284 282 282 285 286 285 285 289 291 290 290 291 292 292 291 292 295 295 294 294 293 293 293 293 293 293 293 293 294 294 294 295 294 295 295 296 297 298 297 298 300 300 301 302 304 306 306 308
283 282 282 284 285 283 285 284 287 290 289 288 289 290 290 291 294 294 294 294 293 293 292 292 291 292 292 292 291 291 291 292 293 294 294 295 295 296 297 296 295 297 299 300 301 302 302 304 307
283 281 282 284 283 283 284 282 286 287 287 288 289 290 290 290 291 291 292 293 293 293 292 291 291 291 291 291 291 291 290 291 291 292 293 294 295 296 295 296 295 295 296 298 300 301 300 303 305
283 282 280 280 283 281 281 285 284 285 287 288 289 289 290 290 291 291 291 292 293 293 293 291 291 290 290 290 291 291 291 291 291 291 291 292 293 293 293 293 293 294 295 294 297 300 300 299 303
281 282 281 280 280 279 281 278 284 283 285 286 288 289 290 290 290 291 291 292 293 293 293 291 291 290 289 290 289 289 287 286 288 289 290 291 291 291 291 292 293 294 294 294 295 298 299 301 300
281 283 281 278 277 276 276 277 284 282 283 284 287 289 290 290 291 291 291 292 292 292 292 291 290 289 288 289 289 288 287 288 288 288 288 289 290 290 291 292 292 293 293 294 295 297 298 301 302
282 279 277 277 277 275 271 275 282 283 284 285 287 288 287 288 289 290 291 291 291 292 291 291 289 287 287 288 289 288 286 286 285 286 285 286 288 289 290 291 292 293 294 295 296 299 299 299 302
280 279 278 276 276 277 267 272 281 285 284 286 286 287 288 288 288 289 289 289 290 290 290 289 286 285 286 287 288 287 286 285 284 284 284 284 286 287 288 290 291 291 293 294 297 297 299 299 301
277 278 277 272 274 276 268 273 283 283 284 286 285 286 286 287 288 288 288 288 288 288 288 286 284 284 286 287 286 286 286 284 283 283 283 285 286 287 289 290 291 291 292 294 296 299 300 299 303
278 277 276 271 263 271 277 277 282 283 282 282 283 285 286 287 287 287 287 287 287 286 286 283 282 284 285 285 285 285 285 284 283 284 284 285 286 287 288 290 290 291 292 295 297 296 299 299 303
279 278 276 276 271 271 276 272 279 284 285 281 282 284 285 285 286 286 285 285 285 284 283 282 282 284 284 285 285 284 284 284 284 284 284 285 286 288 288 288 289 290 293 295 296 297 300 300 302
277 277 275 276 274 273 271 278 284 282 283 283 283 283 283 284 285 284 283 283 283 282 281 281 283 284 284 284 284 284 284 285 284 284 285 286 287 288 288 289 290 291 293 294 294 296 302 301 303
278 279 279 276 272 272 271 276 284 282 281 278 280 283 284 284 284 282 281 281 282 280 280 280 283 283 283 283 283 283 284 284 284 284 286 287 287 288 289 290 289 290 291 293 294 294 299 301 301
Wind_Speed
7 4 2 3 6 4 7 5 1 6 5 5 2 3 5 9 5 4 8 6 5 7 9 13 17 19 21 21 21 20 21 20 19 19 20 18 13 10 7 5 6 7 8 9 9 9 9 11 9
3 2 1 1 5 7 5 5 7 4 4 3 4 2 3 6 5 10 8 6 7 7 9 13 15 18 19 21 20 21 20 20 19 18 17 18 18 16 11 9 8 9 11 11 11 11 10 9 10
1 2 3 3 3 5 1 6 8 6 3 5 4 4 3 6 6 5 8 7 7 9 9 12 15 18 19 20 20 21 20 20 19 19 17 16 15 16 17 13 12 12 11 12 12 12 11 9 9
2 4 3 5 5 2 2 7 5 6 5 2 2 6 5 4 3 6 8 6 7 8 9 13 15 16 18 19 20 20 19 19 19 19 18 17 17 16 14 14 14 13 12 13 13 13 13 12 12
1 1 3 4 4 2 2 3 2 5 4 4 2 6 5 4 8 10 8 5 6 8 8 11 16 17 17 18 19 19 19 19 19 19 18 17 18 16 15 14 14 12 12 14 14 12 12 11 13
3 2 4 8 4 4 3 2 2 3 3 5 4 8 5 9 10 8 6 6 6 8 8 8 11 15 15 17 19 19 18 18 18 17 17 17 17 15 15 15 16 13 11 12 15 14 12 13 15
2 3 2 2 2 4 5 3 4 5 5 4 3 6 6 10 8 8 6 6 6 6 7 7 8 10 12 13 17 18 18 17 17 16 15 16 16 14 15 15 14 14 15 13 13 14 13 13 15
1 2 3 3 5 2 5 5 1 4 4 2 2 4 4 12 11 8 6 5 5 5 6 6 7 9 10 9 12 14 16 17 17 14 14 16 13 12 13 14 12 17 14 14 15 14 15 15 14
1 4 5 4 6 3 5 6 3 1 3 2 3 1 3 12 12 8 6 5 4 4 5 5 6 8 10 9 9 11 13 14 14 13 14 12 8 11 11 13 16 17 17 15 13 14 14 13 12
2 4 3 2 2 2 6 4 4 5 6 6 6 4 7 11 10 10 8 6 4 3 4 5 6 8 9 7 10 9 9 9 9 10 11 9 11 9 11 12 13 16 15 16 15 13 12 11 11
1 1 4 3 2 1 3 3 2 4 8 8 11 12 11 10 10 9 8 6 4 3 2 4 6 7 9 8 7 6 6 6 6 9 10 10 9 8 7 7 7 8 8 8 9 8 7 12 12
2 2 1 4 3 2 2 1 4 8 2 1 4 6 10 10 10 10 9 7 6 3 1 5 8 9 9 7 7 7 7 7 7 9 10 8 7 8 8 7 9 8 7 9 9 7 8 9 13
2 3 1 2 1 2 2 7 7 11 11 5 4 5 9 8 8 8 7 5 5 4 0 4 6 6 6 8 6 7 7 7 9 9 9 8 8 9 9 9 8 9 9 9 9 8 8 8 9
3 3 2 0 1 1 4 4 2 2 3 14 10 9 9 7 9 8 9 9 8 5 3 4 6 7 8 8 9 8 7 8 8 8 9 11 9 9 9 9 9 9 9 9 10 10 8 7 7
3 3 3 1 1 1 2 9 12 11 2 7 14 11 9 7 9 13 11 11 8 4 1 5 7 7 8 10 9 8 8 9 9 9 11 11 11 11 11 10 10 10 9 12 11 12 11 8 7
1 1 2 3 2 2 3 8 1 2 8 11 12 12 11 10 8 9 9 9 6 3 4 4 5 7 8 8 8 8 8 9 9 9 9 12 12 12 11 10 10 10 9 9 10 10 10 11 8
4 2 3 2 2 3 5 9 3 4 7 12 14 15 14 12 10 10 11 9 6 4 4 6 7 8 9 9 8 9 10 9 9 9 9 11 12 12 11 10 10 11 9 9 10 10 11 11 11
1 3 3 6 2 4 12 19 21 15 15 19 18 17 14 13 11 10 11 8 4 3 4 6 6 8 9 8 8 7 7 8 9 9 10 13 11 13 12 10 12 11 10 10 10 12 11 12 12
2 2 6 3 2 7 9 14 24 15 14 16 15 12 10 8 6 10 9 7 4 5 5 6 8 9 7 7 8 7 9 9 10 9 13 14 13 14 13 10 11 12 12 12 12 12 13 12 11
1 2 4 7 0 6 12 22 22 8 2 3 2 3 3 5 8 11 10 7 6 6 7 7 9 9 8 6 7 7 8 9 10 11 13 12 13 13 13 12 11 11 10 14 13 13 11 12 11
2 3 3 5 9 1 13 9 3 2 2 3 3 1 1 3 7 10 10 10 8 8 8 8 9 9 8 10 8 8 9 10 10 10 10 11 14 14 14 14 12 11 10 10 13 14 15 12 12
3 1 1 4 7 5 8 7 8 2 6 2 3 3 1 3 6 8 10 11 10 9 7 9 9 10 9 10 10 12 11 13 11 12 11 12 14 14 14 14 14 12 9 11 10 12 14 13 12
2 2 2 2 1 4 2 4 5 2 2 2 4 3 1 2 6 9 11 12 11 8 9 9 9 10 10 10 11 10 13 11 11 11 15 15 13 15 15 13 13 12 10 11 14 14 12 12 12
6 1 2 2 0 3 3 4 6 4 5 6 5 4 1 1 5 8 10 11 12 9 8 8 10 11 10 10 12 14 15 15 13 13 12 11 11 10 13 13 11 11 12 13 12 15 16 14 16
2 2 3 3 2 3 1 5 11 4 6 3 4 4 4 2 3 6 9 10 12 11 9 8 9 12 11 12 13 14 14 15 16 14 11 14 10 9 11 13 11 10 13 13 14 15 16 15 16
2 2 2 5 3 5 3 8 3 1 4 5 3 5 8 7 3 7 9 9 9 9 10 8 10 12 11 12 13 13 14 9 11 12 12 10 10 11 15 13 14 15 16 16 16 13 13 14 15
4 3 2 5 2 3 3 6 16 4 8 10 10 6 7 8 9 12 11 9 9 9 8 8 10 11 12 13 12 13 12 13 12 15 13 11 13 12 14 14 15 15 17 16 16 12 14 15 16
2 4 2 1 4 6 4 6 6 4 1 1 2 6 7 9 11 11 10 9 7 7 7 7 8 10 12 12 11 11 13 13 13 13 14 15 14 14 13 14 15 17 15 16 14 14 15 17 15
4 3 2 2 2 4 6 5 7 6 3 6 7 8 10 9 11 9 10 8 6 6 6 7 7 10 10 10 12 12 12 13 13 13 13 13 15 14 13 14 15 15 15 14 12 15 16 19 17
1 2 6 4 5 2 4 10 2 6 6 5 9 11 13 10 9 8 10 7 6 6 5 6 7 9 10 10 11 12 13 12 12 13 13 13 13 12 12 10 11 12 12 12 11 11 8 12 13
Wind_Direction
319 324 290 224 205 240 217 184 108 149 150 45 56 280 71 28 7 68 107 80 77 55 37 42 36 43 43 44 42 38 37 33 31 27 22 18 353 336 314 268 242 232 228 225 217 209 202 199 192
318 296 209 163 239 211 172 147 173 119 95 112 98 87 61 84 68 115 133 88 69 52 41 39 39 48 47 46 42 39 36 32 28 23 21 19 11 2 321 298 259 238 234 236 224 216 210 187 187
194 327 218 210 233 229 156 164 130 105 78 178 126 26 61 97 101 100 104 106 80 62 48 43 42 46 46 45 41 37 33 28 24 20 14 9 9 4 357 335 298 260 244 239 228 221 214 196 185
223 171 131 250 218 104 44 138 127 143 116 116 131 107 110 30 106 98 120 109 83 67 53 51 46 47 44 39 36 33 29 22 18 14 9 5 358 352 349 340 339 302 271 258 244 229 221 199 189
34 200 183 232 205 129 138 105 158 162 124 116 199 128 104 93 115 123 120 113 85 73 59 54 46 42 39 35 31 26 21 17 13 7 3 359 353 349 341 338 330 330 299 269 257 243 231 211 201
136 285 207 225 177 159 176 147 187 171 152 124 151 140 124 135 154 134 123 95 67 69 63 57 56 40 34 30 24 19 17 12 7 2 359 353 346 340 340 330 327 321 324 296 269 258 245 234 213
197 209 257 223 178 192 180 154 212 173 160 137 114 162 122 175 162 148 131 109 92 77 66 55 42 31 28 22 18 11 7 4 1 356 353 347 337 331 328 325 319 319 321 315 302 270 253 238 226
89 237 188 213 205 193 137 165 146 223 153 86 254 197 163 176 160 154 143 128 105 90 76 58 36 24 15 6 23 1 356 353 352 349 346 339 326 330 322 315 326 316 311 308 306 294 258 244 231
257 220 232 207 186 126 147 184 157 348 220 199 188 249 84 143 156 173 181 176 152 126 96 61 31 15 4 353 4 347 347 342 341 342 341 329 329 321 316 320 312 309 306 302 296 291 281 246 233
224 227 226 46 102 179 157 214 167 216 191 210 199 167 142 156 178 195 207 199 182 147 84 30 15 4 354 347 346 340 341 340 336 334 332 327 319 316 308 291 298 298 298 296 286 285 274 264 243
81 247 122 130 119 167 169 225 217 224 221 213 206 186 174 183 197 215 220 216 197 147 125 31 1 355 353 350 342 342 338 333 326 324 328 319 316 310 306 301 299 300 295 290 294 290 271 247 241
142 75 62 135 141 179 220 304 247 231 294 39 138 177 179 200 216 222 226 211 196 188 69 9 1 352 349 339 336 329 326 327 318 323 317 316 309 307 300 297 297 288 285 289 283 283 279 285 252
97 139 79 90 153 304 297 256 272 254 240 179 159 199 206 223 239 239 237 220 194 196 278 340 333 328 332 324 324 321 319 316 316 306 309 305 304 297 298 293 290 287 284 276 273 272 282 279 283
93 111 106 80 142 248 282 277 282 225 280 221 210 222 213 222 244 242 221 210 201 191 214 317 332 339 334 329 328 322 319 315 308 304 302 302 295 292 289 288 285 284 279 278 274 272 270 282 273
106 145 142 127 3 310 344 251 234 255 263 211 205 202 199 247 258 242 229 212 200 193 305 330 325 333 328 325 328 322 315 312 304 303 298 294 290 290 288 283 283 281 282 279 271 267 265 258 268
50 212 254 119 323 141 247 278 176 171 200 212 207 213 228 263 244 234 210 196 182 194 268 303 323 325 324 323 320 315 313 307 304 300 297 295 292 285 284 280 276 278 278 277 272 265 261 259 251
35 271 244 235 49 312 232 283 206 177 210 239 231 233 243 266 250 219 192 186 184 210 285 321 329 323 325 320 313 309 307 306 302 296 295 293 290 285 280 281 276 274 277 274 272 267 260 260 256
288 282 254 267 55 271 264 266 275 261 259 257 259 261 265 266 246 197 182 180 191 234 301 302 309 314 315 305 300 298 299 296 298 296 292 293 288 283 273 274 281 275 268 267 267 267 265 260 265
98 265 276 271 23 308 279 285 281 288 266 260 267 261 251 236 207 180 182 190 210 242 264 291 300 298 298 302 311 309 307 307 298 296 292 288 285 283 275 276 276 271 271 266 269 269 264 259 250
102 280 273 287 278 308 301 291 283 295 232 225 235 192 182 165 174 184 198 211 227 258 267 268 275 285 295 299 306 299 298 292 295 293 288 282 280 280 275 267 268 268 270 271 264 262 267 259 251
230 242 277 289 315 201 310 274 292 147 231 228 233 330 74 182 188 200 214 228 239 251 262 270 281 291 297 300 296 292 289 285 291 292 293 291 288 284 280 277 272 270 275 267 268 265 255 260 256
265 119 306 325 336 303 4 290 294 338 305 250 179 182 182 217 227 237 238 243 247 261 276 275 288 295 294 299 293 294 294 294 296 295 292 289 282 278 274 271 269 264 262 260 262 264 257 255 253
55 40 34 49 71 307 81 248 263 316 143 96 167 143 148 259 265 260 254 256 260 269 276 284 290 289 293 291 291 295 292 293 297 291 291 285 283 278 278 276 276 268 266 267 260 259 262 261 254
132 99 66 104 183 246 79 296 263 205 163 148 152 146 74 288 286 282 277 268 265 265 276 287 290 291 295 295 293 293 293 297 295 293 293 286 284 283 275 270 270 268 263 259 254 258 254 253 254
173 258 289 254 230 301 133 245 262 251 218 187 204 176 176 228 258 285 288 289 274 267 287 294 294 297 302 299 298 298 297 297 293 296 290 289 285 282 281 281 277 275 272 271 261 260 248 246 247
135 279 255 279 273 326 161 238 245 292 310 244 263 283 279 264 343 322 309 298 287 273 294 296 299 298 302 303 304 304 301 297 289 284 286 283 281 280 284 282 276 273 270 265 260 264 245 237 244
137 204 46 100 97 265 256 268 271 254 258 263 266 257 258 255 301 319 312 299 288 285 288 295 298 300 307 309 309 305 302 297 290 290 284 280 280 276 275 276 280 277 275 273 269 274 248 240 241
284 118 162 156 283 277 253 270 258 330 10 88 225 258 276 264 292 306 304 301 289 276 283 289 292 298 308 311 309 307 307 297 294 288 285 281 278 275 274 275 273 272 270 267 273 272 247 238 240
148 194 77 333 277 267 304 266 202 221 225 240 264 264 259 276 293 296 303 295 281 274 283 294 299 315 314 316 313 308 302 302 300 291 286 283 285 283 277 272 269 272 270 276 275 287 244 237 241
256 239 198 228 195 247 295 271 108 242 259 252 277 281 290 281 281 290 294 288 275 276 292 296 312 317 322 317 314 311 307 311 304 295 294 292 287 285 282 283 279 284 284 283 279 298 276 245 240